Weather in Morozovka

Russia / Omsk Oblast     54°55′32″N   73°33′42″E
temp.,
°C
wind,
m/s
gust,
m/s
humid.,
%
clouds,
%
prec.,
mm/h
press.,
hPa
HPBL,
m
14 may, fri
fri1400:00+11ne23915 0.1 102162
03:00+12nne24805 0.0 1023109
06:00+9n38891 0.0 1025197
09:00+14nne45600 0.0 1026670
12:00+18n44353 0.0 10271227
15:00+21nnw44275 0.0 10261554
18:00+21nw34265 0.0 10261554
21:00+17w22391 0.0 102519
15 may, sat
sat1500:00+15sw34475 0.0 102547
03:00+14sw4105112 0.0 1023168
06:00+14wsw495472 0.0 1023166
09:00+21wsw6113956 0.0 1022446
12:00+27w683219 0.0 10201147
15:00+29w792736 0.0 10192969
18:00+29wnw5826100 0.0 10183225
21:00+21sse695273 0.5 1017151
16 may, sun
sun1600:00+19w51351100 0.6 1017290
03:00+17wsw512600 0.0 1016284
06:00+17w4116827 0.1 1016231
09:00+22w59471 0.1 1015371
12:00+28wnw6103120 0.1 10142172
15:00+29wnw7102914 0.0 10143106
18:00+28nnw71034100 0.0 10132628
21:00+19nw3675100 5.7 1017257
17 may, mon
mon1700:00+17nne4107610 5.7 1017319
03:00+14nne238721 0.0 101976
06:00+14ese11865 0.0 102038
09:00+19ssw33595 0.0 1019397
12:00+25sw56435 0.0 10181005
15:00+30w69305 0.0 10162808
18:00+30wnw58255 0.0 10143399
21:00+24wsw353816 0.0 101367
18 may, tue
tue1800:00+21wsw49435 0.0 1012153
03:00+19wnw47495 0.0 1012127
06:00+18w245716 0.0 101265
09:00+23nnw464444 0.0 1012522
12:00+26nw453748 0.0 10111478
15:00+28nw4831100 0.0 10103443
18:00+26wnw81133100 0.0 10092245
21:00+21n385261 0.0 1010351